Bradshaw AFB, HI

2:48 PM HST on November 20, 2019 (GMT -1000)
Bradshaw Army Air Field

Weather History for PHSF - September, 2019

Change the Weather History Date:

Monday, September 23, 2019

  Actual Average Record
Temperature  
Mean Temperature 64 °F -  
Max Temperature 73 °F 69 °F 75 °F (2010)
Min Temperature 54 °F 49 °F 44 °F (2017)
Degree Days  
Heating Degree Days 1    
Growing Degree Days 14 (Base 50)    
Moisture  
Dew Point 61 °F    
Average Humidity 93    
Maximum Humidity 100    
Minimum Humidity 65    
Precipitation  
Precipitation 0.48 in - - ()
Sea Level Pressure  
Sea Level Pressure 29.98 in    
Wind  
Wind Speed 7 mph (West)    
Max Wind Speed 14 mph    
Max Gust Speed 17 mph    
Visibility 4 miles    
Events Rain    
Averages and records for this station are not official NWS values.
T = Trace of Precipitation, MM = Missing Value Source: NWS Daily Summary

Daily Weather History Graph

Daily Weather History Graph

Search for Another Location

Airport or City:

Astronomy

Sep. 23, 2019 Rise Set
Actual Time 6:11 AM HST 6:17 PM HST
Civil Twilight 5:49 AM HST 6:39 PM HST
Nautical Twilight 5:23 AM HST 7:04 PM HST
Astronomical Twilight 4:58 AM HST 7:30 PM HST
Moon 12:54 AM HST (9/23) 2:33 PM HST (9/23)
Length of Visible Light 12h 50m
Length of Day
12h 06m
Waning Crescent, 31% of the Moon is Illuminated
Sep 23
Waning Crescent
Sep 28
New
Oct 5
First Quarter
Oct 13
Full
Oct 21
Last Quarter

Hourly Weather History & Observations

Time (HST) Temp. Dew Point Humidity Pressure Visibility Wind Dir Wind Speed Gust Speed Precip Events Conditions
12:58 AM 60.1 °F 57.9 °F 93% 30.00 in 10.0 mi South 13.8 mph - N/A   Partly Cloudy
1:58 AM 59.7 °F 57.9 °F 94% 30.02 in 10.0 mi SE 8.1 mph - N/A   Partly Cloudy
2:58 AM 60.3 °F 57.6 °F 91% 29.99 in 10.0 mi ESE 4.6 mph - N/A   Partly Cloudy
3:08 AM 60.8 °F 57.2 °F 88% 29.97 in 8.0 mi ESE 4.6 mph - N/A   Mostly Cloudy
3:18 AM 60.8 °F 57.2 °F 88% 29.97 in 10.0 mi SSE 4.6 mph - N/A   Scattered Clouds
3:58 AM 57.9 °F 55.0 °F 90% 29.98 in 7.0 mi Calm Calm - N/A   Partly Cloudy
4:58 AM 55.8 °F 54.3 °F 95% 30.01 in 4.0 mi SSE 5.8 mph - N/A   Scattered Clouds
5:58 AM 56.8 °F 54.5 °F 92% 30.02 in 10.0 mi SSE 3.5 mph - N/A   Partly Cloudy
6:58 AM 57.2 °F 55.4 °F 94% 30.05 in 10.0 mi SE 5.8 mph - N/A   Clear
7:58 AM 64.6 °F 59.4 °F 83% 30.02 in 10.0 mi SSE 4.6 mph - N/A   Scattered Clouds
8:58 AM 69.3 °F 61.7 °F 77% 30.01 in 10.0 mi South 12.7 mph 17.3 mph N/A   Scattered Clouds
9:59 AM 71.2 °F 61.2 °F 70% 29.99 in 10.0 mi South 12.7 mph 17.3 mph N/A   Clear
10:58 AM 73.9 °F 61.7 °F 65% 29.97 in 10.0 mi Calm Calm - N/A   Scattered Clouds
11:08 AM 69.8 °F 60.8 °F 73% 29.98 in 4.0 mi NW 6.9 mph - N/A   Haze
11:13 AM 69.8 °F 62.6 °F 78% 29.98 in 2.8 mi NNW 10.4 mph - N/A   Haze
11:48 AM 68.0 °F 62.6 °F 83% 29.99 in 3.0 mi NW 10.4 mph - N/A   Haze
11:58 AM 68.0 °F 62.6 °F 83% 29.99 in 3.0 mi NW 12.7 mph - N/A   Haze
12:03 PM 68.0 °F 62.6 °F 83% 29.99 in 2.5 mi NW 12.7 mph - N/A   Haze
12:07 PM 68.0 °F 62.6 °F 83% 29.98 in 2.5 mi NW 10.4 mph - N/A Rain Light Rain
12:12 PM 66.2 °F 64.4 °F 94% 29.98 in 1.9 mi NW 9.2 mph - N/A Rain Light Rain
12:16 PM 66.2 °F 64.4 °F 94% 29.98 in 1.6 mi NW 11.5 mph - N/A   Overcast
12:21 PM 66.2 °F 64.4 °F 94% 29.98 in 2.2 mi NNW 10.4 mph - N/A   Overcast
12:26 PM 66.2 °F 64.4 °F 94% 29.98 in 3.0 mi NNW 10.4 mph - N/A   Overcast
12:47 PM 66.2 °F 62.6 °F 88% 29.97 in 5.0 mi North 10.4 mph - N/A   Overcast
12:57 PM 66.2 °F 62.6 °F 88% 29.97 in 4.0 mi NNW 12.7 mph - N/A   Overcast
12:58 PM 64.4 °F 62.6 °F 94% 29.98 in 4.0 mi NNW 12.7 mph - 0.00 in   Overcast
1:03 PM 64.4 °F 62.6 °F 94% 29.98 in 2.8 mi NNW 12.7 mph - N/A   Overcast
1:08 PM 64.4 °F 62.6 °F 94% 29.98 in 3.0 mi NNW 11.5 mph - N/A   Overcast
1:13 PM 64.4 °F 62.6 °F 94% 29.98 in 4.0 mi North 8.1 mph - N/A   Overcast
1:26 PM 64.4 °F 62.6 °F 94% 29.97 in 2.5 mi NNW 10.4 mph - N/A Rain Light Rain
1:31 PM 64.4 °F 64.4 °F 100% 29.97 in 1.6 mi NW 8.1 mph - N/A Rain Rain
1:41 PM 64.4 °F 64.4 °F 100% 29.96 in 1.0 mi NW 5.8 mph - N/A Rain Rain
1:46 PM 64.4 °F 64.4 °F 100% 29.96 in 0.8 mi WNW 4.6 mph - N/A Rain Rain
1:58 PM 63.7 °F 62.8 °F 97% 29.98 in 0.6 mi WSW 3.5 mph - 0.26 in Rain Rain
2:13 PM 64.4 °F 62.6 °F 94% 29.96 in 0.6 mi West 3.5 mph - N/A Rain Light Rain
2:18 PM 64.4 °F 62.6 °F 94% 29.96 in 1.2 mi WNW 3.5 mph - N/A Rain Light Rain
2:23 PM 64.4 °F 62.6 °F 94% 29.96 in 1.0 mi WNW 5.8 mph - N/A Rain Rain
2:28 PM 64.4 °F 62.6 °F 94% 29.95 in 1.0 mi West 3.5 mph - N/A Rain Light Rain
2:33 PM 64.4 °F 62.6 °F 94% 29.95 in 1.1 mi WNW 3.5 mph - N/A Rain Light Rain
2:38 PM 62.6 °F 62.6 °F 100% 29.96 in 1.4 mi Calm Calm - N/A Rain Light Rain
2:43 PM 64.4 °F 62.6 °F 94% 29.95 in 1.4 mi Calm Calm - N/A Rain Light Rain
2:49 PM 64.4 °F 62.6 °F 94% 29.95 in 1.9 mi NW 4.6 mph - N/A   Overcast
2:54 PM 64.4 °F 62.6 °F 94% 29.95 in 2.8 mi NNW 5.8 mph - N/A   Overcast
2:58 PM 64.6 °F 63.0 °F 94% 29.95 in 2.8 mi North 8.1 mph - 0.17 in   Overcast
3:03 PM 64.4 °F 62.6 °F 94% 29.95 in 3.0 mi North 5.8 mph - N/A   Overcast
3:08 PM 64.4 °F 62.6 °F 94% 29.95 in 2.5 mi North 3.5 mph - N/A   Overcast
3:18 PM 64.4 °F 62.6 °F 94% 29.95 in 1.8 mi North 5.8 mph - N/A   Overcast
3:23 PM 62.6 °F 62.6 °F 100% 29.95 in 1.8 mi NNW 5.8 mph - N/A   Overcast
3:24 PM 62.6 °F 62.6 °F 100% 29.95 in 1.8 mi NNW 5.8 mph - N/A Rain Light Rain
3:32 PM 62.6 °F 62.6 °F 100% 29.96 in 1.4 mi North 5.8 mph - N/A   Overcast
3:38 PM 62.6 °F 62.6 °F 100% 29.96 in 1.4 mi North 3.5 mph - N/A Rain Light Rain
3:48 PM 62.6 °F 60.8 °F 94% 29.96 in 1.0 mi North 4.6 mph - N/A Rain Light Rain
3:53 PM 62.6 °F 62.6 °F 100% 29.96 in 0.8 mi North 5.8 mph - N/A Rain Light Rain
3:54 PM 62.6 °F 62.6 °F 100% 29.96 in 0.8 mi North 4.6 mph - N/A   Overcast
3:58 PM 62.6 °F 62.6 °F 100% 29.96 in 0.8 mi NNE 5.8 mph - 0.02 in   Overcast
4:08 PM 64.4 °F 62.6 °F 94% 29.95 in 1.4 mi Calm Calm - N/A   Overcast
4:18 PM 64.4 °F 62.6 °F 94% 29.96 in 2.0 mi Calm Calm - N/A   Overcast
4:28 PM 64.4 °F 62.6 °F 94% 29.96 in 1.9 mi Calm Calm - N/A   Overcast
4:43 PM 64.4 °F 62.6 °F 94% 29.96 in 2.0 mi NW 3.5 mph - N/A   Overcast
4:53 PM 64.4 °F 62.6 °F 94% 29.96 in 2.0 mi North 4.6 mph - N/A   Overcast
4:58 PM 64.4 °F 62.8 °F 94% 29.98 in 2.0 mi NW 4.6 mph - N/A   Overcast
5:01 PM 64.4 °F 62.6 °F 94% 29.98 in 2.0 mi WNW 9.2 mph - N/A Rain Light Rain
5:06 PM 62.6 °F 60.8 °F 94% 29.98 in 1.6 mi South 4.6 mph - N/A Rain Light Rain
5:16 PM 62.6 °F 60.8 °F 94% 29.98 in 1.4 mi SW 3.5 mph - N/A Rain Light Rain
5:21 PM 62.6 °F 60.8 °F 94% 29.99 in 1.6 mi SW 3.5 mph - N/A Rain Light Rain
5:31 PM 62.6 °F 60.8 °F 94% 30.00 in 2.2 mi South 5.8 mph - N/A Rain Light Rain
5:32 PM 62.6 °F 60.8 °F 94% 30.00 in 2.5 mi South 4.6 mph - N/A   Overcast
5:47 PM 60.8 °F 60.8 °F 100% 30.00 in 3.0 mi South 5.8 mph - N/A   Overcast
5:48 PM 60.8 °F 60.8 °F 100% 30.01 in 3.0 mi South 5.8 mph - N/A Rain Light Rain
5:53 PM 60.8 °F 60.8 °F 100% 30.01 in 2.8 mi South 5.8 mph - N/A Rain Light Rain
5:58 PM 60.8 °F 59.0 °F 94% 30.01 in 2.2 mi South 5.8 mph - 0.03 in Rain Light Rain
6:00 PM 60.8 °F 59.0 °F 94% 30.01 in 2.2 mi South 4.6 mph - N/A   Overcast
6:05 PM 60.8 °F 59.0 °F 94% 30.01 in 2.5 mi South 4.6 mph - N/A   Overcast
6:10 PM 60.8 °F 59.0 °F 94% 30.01 in 1.6 mi South 4.6 mph - N/A   Overcast
6:20 PM 60.8 °F 59.0 °F 94% 30.01 in 2.2 mi South 4.6 mph - N/A   Overcast
6:30 PM 60.8 °F 59.0 °F 94% 30.01 in 1.6 mi South 4.6 mph - N/A   Overcast
6:35 PM 60.8 °F 59.0 °F 94% 30.01 in 2.2 mi Calm Calm - N/A   Overcast
6:40 PM 60.8 °F 59.0 °F 94% 30.02 in 4.0 mi South 4.6 mph - N/A   Overcast
6:45 PM 60.8 °F 59.0 °F 94% 30.02 in 4.0 mi South 4.6 mph - N/A   Overcast
6:58 PM 60.1 °F 58.6 °F 95% 30.02 in 5.0 mi South 4.6 mph - 0.00 in   Overcast
7:23 PM 60.8 °F 59.0 °F 94% 30.01 in 6.0 mi SSE 3.5 mph - N/A   Mostly Cloudy
7:58 PM 59.0 °F 57.2 °F 94% 30.00 in 5.0 mi South 4.6 mph - N/A   Mostly Cloudy
8:58 PM 56.8 °F 55.0 °F 94% 30.00 in 5.0 mi SE 4.6 mph - N/A   Clear
9:58 PM 56.1 °F 55.0 °F 96% 30.00 in 4.0 mi South 4.6 mph - N/A   Clear
10:58 PM 55.8 °F 54.3 °F 95% 29.99 in 5.0 mi SE 4.6 mph - N/A   Clear
11:58 PM 54.5 °F 53.4 °F 96% 29.99 in 6.0 mi SSE 4.6 mph - N/A   Clear